SCP
0 0 0 -0 0 0 0 0 0 0 0 0 0 0 0 0 0 0 0 0 0 0 0 0 0 0 0 0 0 0 0 0 0 0 0 0 0 0 0 0 0 0 0
0 0 0 0 0 0 0 0 0 0 0 0 0 0 0 0 0 0 0 0 0 0 0 0 0 0 0 0 0 0 0 0 0 0 0 0 0 0 0 0 0 0 0
0 0 0 0 0 0 0 0 0 0 0 0 0 0 0 0 0 0 0 0 0 0 0 0 0 0 0 0 0 0 0 0 0 0 0 0 0 0 0 0 0 0 0
0 0 0 0 0 0 0 0 0 0 0 0 0 0 0 0 0 0 0 0 0 0 0 0 0 0 0 0 0 0 0 0 0 0 0 0 0 0 0 0 0 0 0
0 0 0 0 0 0 0 0 0 0 0 0 0 0 0 0 0 0 0 0 0 0 0 0 0 0 0 0 0 0 0 0 0 0 0 0 0 0 0 0 0 0 0
0 0 0 0 0 0 0 0 0 0 0 0 0 0 0 0 0 0 0 0 0 0 0 0 0 0 0 0 0 0 0 0 0 0 0 0 0 0 0 0 0 0 0
0 0 0 0 0 0 0 0 0 0 0 0 0 0 0 0 0 0 0 0 0 0 0 0 0 0 0 0 0 0 0 0 0 0 0 0 0 0 0 0 0 0 0
0 0 0 0 0 0 0 0 0 0 0 0 0 0 0 0 0 0 0 0 0 0 0 0 0 0 0 0 0 0 0 0 0 0 0 0 0 0 0 0 0 0 0
0 0 0 0 0 0 0 0 0 0 0 0 0 0 0 0 0 0 0 0 0 0 0 0 0 0 0 0 0 0 0 0 0 0 0 0 0 0 0 0 0 0 0
0 0 0 0 0 0 0 0 0 0 0 0 0 0 0 0 0 0 0 0 0 0 0 0 0 0 0 0 0 0 0 0 0 0 0 0 0 -0 0 0 0 -0 0
0 0 0 0 0 0 0 0 0 0 0 0 0 0 0 0 0 0 0 0 0 0 0 0 0 0 0 0 0 0 0 0 0 0 0 0 -0 -0 -0 -0 -0 0 0
0 0 0 0 0 0 0 0 0 0 0 0 0 0 0 0 0 0 0 0 0 0 0 0 0 0 0 0 0 0 0 0 0 0 0 -0 -0 -0 -0 0 0 0 0
0 0 0 0 0 0 0 0 0 0 0 0 0 0 0 0 0 0 0 0 0 0 0 0 0 0 0 0 0 0 0 -0 0 0 0 -0 -0 0 0 0 0 0 0
0 0 0 0 0 0 0 0 0 0 0 0 0 0 0 0 0 0 0 0 0 0 0 0 0 0 0 0 0 0 0 -0 -0 -0 -0 0 0 0 0 0 0 0 0
0 0 0 0 0 0 0 0 0 0 0 0 0 0 0 0 0 0 0 0 0 0 0 0 0 0 0 0 0 0 0 0 0 0 0 0 0 0 0 0 0 0 0
0 0 0 0 0 0 0 0 0 0 0 0 0 0 0 0 0 0 0 0 0 0 0 0 0 0 0 -0 0 0 0 0 0 0 0 0 0 0 0 0 0 0 0
0 0 0 0 0 0 0 0 0 0 0 0 0 0 0 0 0 0 0 0 0 0 0 0 0 0 0 0 0 0 0 0 0 0 0 0 0 0 0 0 0 0 0
-0 0 0 0 0 0 0 0 0 0 0 0 0 0 0 0 0 0 0 0 0 0 0 0 0 0 0 0 0 0 0 0 0 0 0 0 0 0 0 0 0 0 0
0 0 0 0 0 0 0 0 0 0 0 0 0 0 0 0 0 0 0 0 0 0 0 0 0 0 0 0 0 0 0 0 0 0 0 0 0 0 0 0 0 0 0
0 -0 0 0 0 0 0 0 0 0 0 0 0 0 0 0 0 0 0 0 0 0 0 0 0 0 0 0 0 0 0 0 0 0 0 0 0 0 0 0 0 0 0
-0 0 0 0 0 0 0 0 0 0 0 0 0 0 -0 0 0 0 0 0 0 0 0 0 0 0 0 0 0 0 0 0 0 0 0 0 0 0 0 0 0 0 0
-0 -0 0 0 0 0 0 0 0 0 0 0 0 0 0 0 0 0 0 0 0 0 0 0 0 0 0 0 0 0 0 0 0 0 0 0 0 0 0 0 0 0 0
-0 -0 0 0 0 0 0 0 0 0 0 0 0 0 0 0 0 0 0 0 0 0 0 0 0 0 0 0 0 0 0 0 0 0 0 0 0 0 0 0 0 0 0
-0 -0 -0 0 0 0 0 0 0 0 0 0 0 0 0 0 0 0 0 0 0 0 0 0 0 0 0 0 0 0 0 0 0 0 0 0 0 0 0 0 0 0 0
-0 -0 0 0 0 0 0 0 0 0 0 0 0 0 0 -0 0 0 0 0 0 0 0 0 0 0 0 0 0 0 0 0 0 0 0 0 -0 -0 0 0 0 0 0
-0 -0 -0 -0 0 0 0 0 0 0 0 0 0 0 0 0 -0 0 0 0 0 0 0 0 0 0 0 0 0 0 0 0 0 0 0 0 0 0 0 0 0 0 0
Wind_Speed_500mb
18 46 67 70 67 50 29 22 18 19 18 12 12 11 14 13 17 21 25 26 28 27 29 32 32 36 40 44 50 50 53 64 64 60 58 56 53 58 57 66 53 55 42
27 22 68 74 84 44 21 11 8 6 6 5 7 7 11 16 19 22 22 25 28 29 27 28 34 36 43 52 53 58 62 62 61 60 62 65 63 61 67 49 47 42 37
33 40 36 48 39 30 19 14 6 0 4 3 5 10 12 15 19 22 24 23 24 26 28 31 37 44 51 52 62 61 58 59 58 62 71 62 63 71 61 41 42 37 37
26 40 38 8 16 10 10 5 2 2 4 6 6 10 15 20 20 20 22 23 27 33 39 47 50 53 58 59 58 56 59 59 60 62 55 60 69 66 36 37 44 34 41
24 45 10 2 9 3 3 3 2 1 3 6 11 14 19 20 18 20 28 34 39 45 48 52 52 52 55 51 50 54 59 60 64 66 66 61 53 36 28 35 42 36 37
34 5 5 3 2 4 5 5 4 2 7 10 13 20 23 20 22 32 39 42 46 42 48 47 49 51 56 59 62 65 67 49 40 42 47 38 45 43 38 32 41 32 36
37 11 11 1 4 3 5 3 2 9 12 13 19 23 21 28 38 40 39 43 43 47 50 53 56 60 67 66 56 56 53 47 44 41 41 32 31 35 35 34 21 31 32
30 12 8 1 5 2 0 3 8 12 15 20 19 20 30 37 42 43 41 42 47 54 57 60 63 60 50 44 40 41 40 35 29 24 25 27 30 32 33 33 31 27 35
13 4 4 9 2 1 7 8 9 14 19 13 22 30 36 40 44 43 43 51 60 64 63 58 49 39 34 34 38 39 39 34 28 29 29 30 30 27 25 28 21 24 31
13 7 9 4 6 4 7 5 12 14 11 20 29 37 39 38 40 44 55 63 67 61 49 42 40 33 37 38 34 37 40 38 32 26 23 13 13 6 5 8 10 14 14
21 13 6 8 9 3 7 9 10 11 19 28 35 36 33 36 44 56 64 61 46 40 38 37 33 36 40 38 32 32 31 31 26 24 16 15 11 6 8 9 14 22 10
21 12 10 7 8 5 4 6 11 17 25 29 29 30 34 43 53 57 47 38 37 35 35 33 33 33 31 35 30 27 28 25 19 14 16 13 10 6 0 10 17 10 9
20 14 13 11 4 3 5 13 17 20 22 22 25 33 41 50 47 39 39 39 35 35 33 32 30 28 27 30 29 28 19 16 17 18 13 16 18 15 9 10 9 3 4
27 19 16 12 4 7 12 15 16 14 18 25 32 41 46 41 40 42 41 41 38 36 36 32 29 25 24 25 26 26 17 13 16 14 15 19 23 21 21 18 17 19 16
24 18 18 4 5 9 8 8 11 16 23 30 39 40 37 39 38 38 36 37 39 38 33 33 32 30 28 27 25 21 19 10 12 12 14 18 19 20 22 24 20 21 24
20 20 9 3 12 8 3 8 13 21 29 39 37 33 33 30 30 31 36 34 35 38 37 37 36 34 32 28 29 26 26 17 11 12 14 18 20 24 29 23 27 29 24
15 15 9 7 8 3 3 11 18 25 34 33 28 31 34 31 31 37 36 31 35 36 40 38 35 33 31 29 29 28 26 23 13 10 23 21 25 29 26 31 28 31 34
16 10 10 8 4 2 6 15 22 28 26 26 26 30 32 29 33 35 34 35 43 43 42 39 38 36 35 34 33 29 29 31 37 35 28 20 25 30 25 28 28 27 30
16 19 19 13 7 4 13 21 24 23 25 27 29 30 31 31 38 41 42 44 41 40 41 41 40 38 35 34 41 41 38 33 33 34 28 22 23 21 26 31 27 30 35
11 15 22 9 7 9 18 21 21 22 22 27 27 31 33 37 48 52 54 51 43 40 39 40 41 39 37 36 34 33 31 30 25 27 24 25 21 24 30 34 36 38 37
22 23 13 11 11 17 21 20 22 22 24 24 23 29 32 37 44 47 48 49 50 49 44 39 39 40 38 39 42 43 38 31 31 34 33 33 40 40 40 31 33 35 35
25 17 12 11 18 21 22 24 22 22 22 22 22 28 27 34 37 40 40 43 43 46 45 44 43 39 41 44 49 49 41 39 41 39 42 48 46 42 40 39 38 33 39
16 11 11 15 21 25 26 25 23 21 23 22 22 27 26 31 33 32 35 40 39 40 39 39 37 37 38 37 47 43 41 40 39 40 45 35 33 35 34 35 35 45 45
16 13 11 18 23 25 28 25 22 24 24 22 22 25 24 28 29 29 34 38 35 35 39 36 36 36 38 42 45 40 39 43 47 43 43 39 35 35 38 45 42 37 30
16 9 14 22 23 26 23 26 26 26 26 22 21 22 23 26 25 28 31 34 34 41 43 35 35 33 34 35 36 42 40 42 47 40 36 33 33 35 35 34 29 25 22
12 14 22 24 23 24 29 31 28 29 26 21 20 20 21 24 23 24 32 33 37 45 44 41 40 35 35 32 30 33 34 45 38 37 38 37 35 32 27 25 24 23 21
Wind_Direction_500mb
306 40 14 352 344 315 294 279 246 219 220 213 215 238 258 281 300 308 311 309 304 300 300 296 291 295 293 299 299 295 301 304 296 299 298 300 295 296 303 313 295 302 295
273 262 319 311 311 319 292 257 252 160 157 213 223 253 292 302 306 311 311 307 305 304 308 296 298 301 301 301 298 296 292 297 295 295 297 298 294 297 314 306 297 295 294
292 325 304 328 273 294 298 297 343 191 168 169 311 317 311 316 320 316 315 318 314 312 317 309 300 297 287 286 283 285 289 287 288 288 290 287 292 303 311 298 300 294 294
309 336 348 89 206 253 326 354 133 145 345 351 354 339 331 332 327 323 328 327 316 311 303 297 295 291 292 293 295 293 292 293 292 285 283 292 300 306 289 304 306 294 295
330 331 78 83 193 309 313 158 157 243 357 5 357 344 334 326 323 319 322 316 312 308 307 306 303 304 306 306 302 297 297 297 295 294 293 293 285 297 299 300 300 295 302
355 120 349 280 210 298 165 168 157 54 14 357 335 329 324 316 317 317 315 313 310 308 314 308 304 304 304 304 301 298 299 306 306 303 301 291 289 283 295 297 295 293 296
335 268 305 333 329 277 177 175 75 19 357 334 320 318 325 326 323 316 314 311 310 317 314 311 310 310 309 305 306 306 304 301 297 297 282 272 275 277 281 284 293 290 292
322 248 257 90 325 2 338 325 357 346 330 322 321 327 329 324 318 312 309 312 316 315 314 315 317 317 315 318 326 329 331 328 319 315 306 299 290 288 279 277 265 288 300
0 311 280 339 329 286 6 342 331 323 321 325 326 326 322 315 311 311 312 314 315 317 319 320 323 326 334 330 329 328 332 328 321 319 310 297 289 293 283 263 252 266 299
337 307 296 252 250 294 347 321 314 325 317 329 324 321 320 318 317 316 317 317 318 322 330 333 348 350 340 336 330 330 331 335 336 329 332 335 305 286 62 192 226 291 297
306 283 263 253 245 214 300 296 319 325 327 320 321 322 323 322 322 320 320 326 333 341 347 352 351 349 350 347 341 339 337 335 331 337 354 2 7 317 292 275 275 289 269
299 265 251 217 195 266 288 356 349 328 321 323 326 327 329 328 325 323 331 349 346 349 348 346 342 340 347 353 351 347 348 343 352 27 41 49 50 43 270 265 274 251 252
268 240 211 218 211 341 350 334 334 335 329 330 334 335 331 330 329 336 356 357 358 353 351 346 343 348 353 1 358 355 352 4 43 57 45 18 5 341 358 35 83 111 8
250 229 221 236 183 289 329 340 337 335 338 344 341 336 337 340 347 355 354 357 2 1 359 360 0 3 4 4 5 7 12 15 33 46 25 12 6 73 57 77 61 37 64
235 213 224 262 257 283 319 338 353 352 350 348 342 345 349 359 2 352 355 4 5 2 1 5 9 13 12 12 14 25 17 29 56 47 27 16 74 67 80 60 66 66 88
226 209 181 179 261 264 341 27 7 355 351 348 352 358 9 11 359 6 11 19 14 11 15 15 17 18 17 21 25 47 41 45 44 36 27 61 75 73 65 79 62 105 80
241 170 132 63 226 260 45 13 8 1 356 359 6 12 16 14 18 18 22 22 17 19 25 24 24 25 30 35 39 39 41 37 42 71 81 74 84 70 75 58 85 101 78
157 133 63 134 182 241 9 14 5 5 10 16 19 25 18 28 25 24 35 37 35 33 29 33 40 43 42 45 42 42 50 70 82 70 70 94 79 70 64 66 87 74 96
160 133 108 150 147 54 20 7 12 24 26 26 31 33 34 37 35 43 41 38 36 34 39 45 46 49 46 50 65 58 58 70 76 66 64 97 83 70 64 91 80 94 100
141 128 132 129 78 33 11 18 34 33 24 25 33 39 39 40 53 51 49 46 47 47 52 51 53 51 62 63 63 70 62 59 72 64 70 94 83 70 95 103 94 97 96
154 142 144 111 60 22 23 39 40 35 29 31 49 47 47 59 61 55 51 48 48 51 51 55 57 59 59 58 56 48 46 57 68 80 79 79 87 91 97 90 113 89 95
152 141 125 61 31 30 43 44 42 34 38 48 68 57 61 72 63 58 51 47 46 48 52 53 51 51 50 50 46 44 62 74 81 82 81 92 86 90 91 92 93 96 104
149 135 81 43 42 51 48 46 41 41 46 60 78 63 73 76 67 60 51 47 46 54 54 54 51 55 51 58 45 54 74 80 86 81 93 93 89 88 84 97 85 104 106
144 98 49 57 59 55 51 44 47 49 52 65 83 69 81 84 73 61 51 48 54 59 58 51 58 54 48 57 50 72 81 82 92 88 84 81 80 82 86 93 98 103 101
116 80 73 67 61 56 52 52 49 51 55 68 88 75 83 97 80 67 59 49 47 52 61 54 58 63 64 54 54 74 86 90 89 83 75 79 87 94 90 86 77 72 75
102 90 81 67 60 55 58 50 49 52 54 67 91 80 83 110 97 68 63 59 52 60 61 61 60 65 64 64 71 77 86 100 87 78 77 78 84 87 84 74 65 63 82
Wind_Speed_850mb
18 46 67 70 67 50 29 22 18 19 18 12 12 11 14 13 17 21 25 26 28 27 29 32 32 36 40 44 50 50 53 64 64 60 58 56 53 58 57 66 53 55 42
27 22 68 74 84 44 21 11 8 6 6 5 7 7 11 16 19 22 22 25 28 29 27 28 34 36 43 52 53 58 62 62 61 60 62 65 63 61 67 49 47 42 37
33 40 36 48 39 30 19 14 6 0 4 3 5 10 12 15 19 22 24 23 24 26 28 31 37 44 51 52 62 61 58 59 58 62 71 62 63 71 61 41 42 37 37
26 40 38 8 16 10 10 5 2 2 4 6 6 10 15 20 20 20 22 23 27 33 39 47 50 53 58 59 58 56 59 59 60 62 55 60 69 66 36 37 44 34 41
24 45 10 2 9 3 3 3 2 1 3 6 11 14 19 20 18 20 28 34 39 45 48 52 52 52 55 51 50 54 59 60 64 66 66 61 53 36 28 35 42 36 37
34 5 5 3 2 4 5 5 4 2 7 10 13 20 23 20 22 32 39 42 46 42 48 47 49 51 56 59 62 65 67 49 40 42 47 38 45 43 38 32 41 32 36
37 11 11 1 4 3 5 3 2 9 12 13 19 23 21 28 38 40 39 43 43 47 50 53 56 60 67 66 56 56 53 47 44 41 41 32 31 35 35 34 21 31 32
30 12 8 1 5 2 0 3 8 12 15 20 19 20 30 37 42 43 41 42 47 54 57 60 63 60 50 44 40 41 40 35 29 24 25 27 30 32 33 33 31 27 35
13 4 4 9 2 1 7 8 9 14 19 13 22 30 36 40 44 43 43 51 60 64 63 58 49 39 34 34 38 39 39 34 28 29 29 30 30 27 25 28 21 24 31
13 7 9 4 6 4 7 5 12 14 11 20 29 37 39 38 40 44 55 63 67 61 49 42 40 33 37 38 34 37 40 38 32 26 23 13 13 6 5 8 10 14 14
21 13 6 8 9 3 7 9 10 11 19 28 35 36 33 36 44 56 64 61 46 40 38 37 33 36 40 38 32 32 31 31 26 24 16 15 11 6 8 9 14 22 10
21 12 10 7 8 5 4 6 11 17 25 29 29 30 34 43 53 57 47 38 37 35 35 33 33 33 31 35 30 27 28 25 19 14 16 13 10 6 0 10 17 10 9
20 14 13 11 4 3 5 13 17 20 22 22 25 33 41 50 47 39 39 39 35 35 33 32 30 28 27 30 29 28 19 16 17 18 13 16 18 15 9 10 9 3 4
27 19 16 12 4 7 12 15 16 14 18 25 32 41 46 41 40 42 41 41 38 36 36 32 29 25 24 25 26 26 17 13 16 14 15 19 23 21 21 18 17 19 16
24 18 18 4 5 9 8 8 11 16 23 30 39 40 37 39 38 38 36 37 39 38 33 33 32 30 28 27 25 21 19 10 12 12 14 18 19 20 22 24 20 21 24
20 20 9 3 12 8 3 8 13 21 29 39 37 33 33 30 30 31 36 34 35 38 37 37 36 34 32 28 29 26 26 17 11 12 14 18 20 24 29 23 27 29 24
15 15 9 7 8 3 3 11 18 25 34 33 28 31 34 31 31 37 36 31 35 36 40 38 35 33 31 29 29 28 26 23 13 10 23 21 25 29 26 31 28 31 34
16 10 10 8 4 2 6 15 22 28 26 26 26 30 32 29 33 35 34 35 43 43 42 39 38 36 35 34 33 29 29 31 37 35 28 20 25 30 25 28 28 27 30
16 19 19 13 7 4 13 21 24 23 25 27 29 30 31 31 38 41 42 44 41 40 41 41 40 38 35 34 41 41 38 33 33 34 28 22 23 21 26 31 27 30 35
11 15 22 9 7 9 18 21 21 22 22 27 27 31 33 37 48 52 54 51 43 40 39 40 41 39 37 36 34 33 31 30 25 27 24 25 21 24 30 34 36 38 37
22 23 13 11 11 17 21 20 22 22 24 24 23 29 32 37 44 47 48 49 50 49 44 39 39 40 38 39 42 43 38 31 31 34 33 33 40 40 40 31 33 35 35
25 17 12 11 18 21 22 24 22 22 22 22 22 28 27 34 37 40 40 43 43 46 45 44 43 39 41 44 49 49 41 39 41 39 42 48 46 42 40 39 38 33 39
16 11 11 15 21 25 26 25 23 21 23 22 22 27 26 31 33 32 35 40 39 40 39 39 37 37 38 37 47 43 41 40 39 40 45 35 33 35 34 35 35 45 45
16 13 11 18 23 25 28 25 22 24 24 22 22 25 24 28 29 29 34 38 35 35 39 36 36 36 38 42 45 40 39 43 47 43 43 39 35 35 38 45 42 37 30
16 9 14 22 23 26 23 26 26 26 26 22 21 22 23 26 25 28 31 34 34 41 43 35 35 33 34 35 36 42 40 42 47 40 36 33 33 35 35 34 29 25 22
12 14 22 24 23 24 29 31 28 29 26 21 20 20 21 24 23 24 32 33 37 45 44 41 40 35 35 32 30 33 34 45 38 37 38 37 35 32 27 25 24 23 21
Wind_Direction_850mb
306 40 14 352 344 315 294 279 246 219 220 213 215 238 258 281 300 308 311 309 304 300 300 296 291 295 293 299 299 295 301 304 296 299 298 300 295 296 303 313 295 302 295
273 262 319 311 311 319 292 257 252 160 157 213 223 253 292 302 306 311 311 307 305 304 308 296 298 301 301 301 298 296 292 297 295 295 297 298 294 297 314 306 297 295 294
292 325 304 328 273 294 298 297 343 191 168 169 311 317 311 316 320 316 315 318 314 312 317 309 300 297 287 286 283 285 289 287 288 288 290 287 292 303 311 298 300 294 294
309 336 348 89 206 253 326 354 133 145 345 351 354 339 331 332 327 323 328 327 316 311 303 297 295 291 292 293 295 293 292 293 292 285 283 292 300 306 289 304 306 294 295
330 331 78 83 193 309 313 158 157 243 357 5 357 344 334 326 323 319 322 316 312 308 307 306 303 304 306 306 302 297 297 297 295 294 293 293 285 297 299 300 300 295 302
355 120 349 280 210 298 165 168 157 54 14 357 335 329 324 316 317 317 315 313 310 308 314 308 304 304 304 304 301 298 299 306 306 303 301 291 289 283 295 297 295 293 296
335 268 305 333 329 277 177 175 75 19 357 334 320 318 325 326 323 316 314 311 310 317 314 311 310 310 309 305 306 306 304 301 297 297 282 272 275 277 281 284 293 290 292
322 248 257 90 325 2 338 325 357 346 330 322 321 327 329 324 318 312 309 312 316 315 314 315 317 317 315 318 326 329 331 328 319 315 306 299 290 288 279 277 265 288 300
0 311 280 339 329 286 6 342 331 323 321 325 326 326 322 315 311 311 312 314 315 317 319 320 323 326 334 330 329 328 332 328 321 319 310 297 289 293 283 263 252 266 299
337 307 296 252 250 294 347 321 314 325 317 329 324 321 320 318 317 316 317 317 318 322 330 333 348 350 340 336 330 330 331 335 336 329 332 335 305 286 62 192 226 291 297
306 283 263 253 245 214 300 296 319 325 327 320 321 322 323 322 322 320 320 326 333 341 347 352 351 349 350 347 341 339 337 335 331 337 354 2 7 317 292 275 275 289 269
299 265 251 217 195 266 288 356 349 328 321 323 326 327 329 328 325 323 331 349 346 349 348 346 342 340 347 353 351 347 348 343 352 27 41 49 50 43 270 265 274 251 252
268 240 211 218 211 341 350 334 334 335 329 330 334 335 331 330 329 336 356 357 358 353 351 346 343 348 353 1 358 355 352 4 43 57 45 18 5 341 358 35 83 111 8
250 229 221 236 183 289 329 340 337 335 338 344 341 336 337 340 347 355 354 357 2 1 359 360 0 3 4 4 5 7 12 15 33 46 25 12 6 73 57 77 61 37 64
235 213 224 262 257 283 319 338 353 352 350 348 342 345 349 359 2 352 355 4 5 2 1 5 9 13 12 12 14 25 17 29 56 47 27 16 74 67 80 60 66 66 88
226 209 181 179 261 264 341 27 7 355 351 348 352 358 9 11 359 6 11 19 14 11 15 15 17 18 17 21 25 47 41 45 44 36 27 61 75 73 65 79 62 105 80
241 170 132 63 226 260 45 13 8 1 356 359 6 12 16 14 18 18 22 22 17 19 25 24 24 25 30 35 39 39 41 37 42 71 81 74 84 70 75 58 85 101 78
157 133 63 134 182 241 9 14 5 5 10 16 19 25 18 28 25 24 35 37 35 33 29 33 40 43 42 45 42 42 50 70 82 70 70 94 79 70 64 66 87 74 96
160 133 108 150 147 54 20 7 12 24 26 26 31 33 34 37 35 43 41 38 36 34 39 45 46 49 46 50 65 58 58 70 76 66 64 97 83 70 64 91 80 94 100
141 128 132 129 78 33 11 18 34 33 24 25 33 39 39 40 53 51 49 46 47 47 52 51 53 51 62 63 63 70 62 59 72 64 70 94 83 70 95 103 94 97 96
154 142 144 111 60 22 23 39 40 35 29 31 49 47 47 59 61 55 51 48 48 51 51 55 57 59 59 58 56 48 46 57 68 80 79 79 87 91 97 90 113 89 95
152 141 125 61 31 30 43 44 42 34 38 48 68 57 61 72 63 58 51 47 46 48 52 53 51 51 50 50 46 44 62 74 81 82 81 92 86 90 91 92 93 96 104
149 135 81 43 42 51 48 46 41 41 46 60 78 63 73 76 67 60 51 47 46 54 54 54 51 55 51 58 45 54 74 80 86 81 93 93 89 88 84 97 85 104 106
144 98 49 57 59 55 51 44 47 49 52 65 83 69 81 84 73 61 51 48 54 59 58 51 58 54 48 57 50 72 81 82 92 88 84 81 80 82 86 93 98 103 101
116 80 73 67 61 56 52 52 49 51 55 68 88 75 83 97 80 67 59 49 47 52 61 54 58 63 64 54 54 74 86 90 89 83 75 79 87 94 90 86 77 72 75
102 90 81 67 60 55 58 50 49 52 54 67 91 80 83 110 97 68 63 59 52 60 61 61 60 65 64 64 71 77 86 100 87 78 77 78 84 87 84 74 65 63 82